Home > Time Zones > World Clock > Weather > China > Wuhan > Past weeks

Flag for China Weather past 2 weeks in Wuhan, Hubei, China

Now
66 °F

Haze.


Feels Like: 66 °F
Forecast: 59 / 74 °F
Wind: 8 mph from Southeast

Location: Wuhan Airport

Current Time: Mar 29, 2015 at 11:40:21 AM

Latest Report: Mar 29, 2015 at 11:00 AM


Visibility: 2 mi

Pressure: 30.01 "Hg

Humidity: 68%

Dew point: 55 °F

Location of WuhanLocation

Historic Weather in Wuhan — Graph

°F

Wuhan temperature yesterday

Maximum temperature yesterday: 70 °F (at 4:00 PM)
Minimum temperature yesterday: 54 °F (at 5:00 AM)
Average temperature yesterday: 61 °F

Past Weeks' High & Low Weather Summary

 TemperatureHumidityPressure
High73 °F (Mar 22, 3:00 PM)100% (Mar 15, 7:00 AM)30.42 "Hg (Mar 15, 7:00 AM)
Low45 °F (Mar 27, 6:00 AM)29% (Mar 22, 5:00 PM)29.68 "Hg (Mar 17, 2:00 PM)
Average57 °F79%30.12 "Hg
* Reported Mar 14 10:00 AM — Mar 29 10:00 AM, Wuhan, Weather by CustomWeather, © 2015

Note: Actual official high and low records may vary slightly from our data, if they occured in-between our weather recording intervals... More about our weather records

Advertising

Wuhan weather history for previous 24 hours

 ConditionsComfort  
Time TempWeatherWind HumidityBarometerVisibility
10:00 AM
Sun, Mar 29
66 °FHaze.8 mph68%30.01 "Hg2 mi
9:00 AM64 °FFog.8 mph78%30.01 "Hg2 mi
8:00 AM61 °FFog.6 mph83%30.01 "Hg1 mi
7:00 AM59 °FFog.6 mph88%29.98 "Hg1 mi
6:00 AM57 °FFog.6 mph94%29.98 "Hg2 mi
5:00 AM59 °FFog.6 mph88%29.98 "Hg2 mi
4:00 AM57 °FFog.3 mph94%29.98 "Hg2 mi
3:00 AM57 °FFog.3 mph94%30.01 "Hg3 mi
2:00 AM57 °FFog.3 mph94%30.01 "Hg3 mi
1:00 AM57 °FFog.3 mph94%30.04 "Hg2 mi
12:00 AM59 °FFog.3 mph88%30.04 "Hg3 mi
11:00 PM
Sat, Mar 28
59 °FFog.No wind94%30.04 "Hg3 mi
10:00 PM59 °FFog.1 mph94%30.04 "Hg3 mi
9:00 PM63 °FClear.3 mph88%30.04 "Hg4 mi
8:00 PM63 °FClear.1 mph83%30.01 "Hg5 mi
7:00 PM64 °FClear.1 mph78%30.01 "Hg5 mi
6:00 PM68 °FSunny.3 mph64%30.01 "Hg10 mi
5:00 PM70 °FClear.6 mph60%30.01 "Hg6 mi
4:00 PM70 °FClear.6 mph60%29.98 "Hg5 mi
3:00 PM68 °FPassing clouds.6 mph64%30.01 "Hg4 mi
2:00 PM68 °FClear.6 mph64%30.04 "Hg4 mi
1:00 PM66 °FClear.8 mph68%30.07 "Hg4 mi
12:00 PM63 °FHaze.6 mph77%30.09 "Hg3 mi
11:00 AM63 °FHaze.6 mph73%30.12 "Hg3 mi
Weather by CustomWeather, © 2015

See weather overviewHow to use our weather pages